Tracking 35274 objects as of 11-Sep-2026
HD Live streaming from Space Station
objects crossing your sky now

STARLINK-30766

Track STARLINK-30766 now!
10-day predictions
STARLINK-30766 is classified as:


NORAD ID: 58125
Int'l Code: 2023-162H
Launch date: October 22, 2023
Source: United States (US)
Launch site: AIR FORCE EASTERN TEST RANGE (AFETR)
Your satellite tracking list
Your tracking list is empty




NASA's NSSDC Master Catalog

Two Line Element Set (TLE):
1 58125U 23162H   26253.46670120 -.00007503  00000-0 -26317-3 0  9998
2 58125  43.0018 165.7989 0001795 265.3539  94.7108 15.27608519160605
Source of the keplerian elements: AFSPC